Fort Myers Airport, FL

6:59 AM EDT on August 17, 2017 (GMT -0400)
Southwest Florida International

Weather History for KRSW - August, 2013

Change the Weather History Date:

Monday, August 26, 2013

  Actual Average Record
Temperature  
Mean Temperature 80 °F -  
Max Temperature 89 °F 91 °F 97 °F (1941)
Min Temperature 73 °F 74 °F 69 °F (1996)
Cooling Degree Days 16    
Growing Degree Days 30 (Base 50)    
Moisture  
Dew Point 73 °F    
Average Humidity 87    
Maximum Humidity 97    
Minimum Humidity 55    
Precipitation  
Precipitation 0.52 in - - ()
Sea Level Pressure  
Sea Level Pressure 30.06 in    
Wind  
Wind Speed 6 mph (ENE)    
Max Wind Speed 20 mph    
Max Gust Speed 25 mph    
Visibility 9 miles    
Events Rain    
Averages and records for this station are not official NWS values.
T = Trace of Precipitation, MM = Missing Value Source: NWS Daily Summary

Daily Weather History Graph

Daily Weather History Graph

Search for Another Location

Airport or City:

Trip Planner

Search our weather history database for the weather conditions in past years. The results will help you decide how hot, cold, wet, or windy it might be!

Date:

Astronomy

Aug. 26, 2013 Rise Set
Actual Time 7:04 AM EDT 7:52 PM EDT
Civil Twilight 6:40 AM EDT 8:16 PM EDT
Nautical Twilight 6:12 AM EDT 8:44 PM EDT
Astronomical Twilight 5:43 AM EDT 9:12 PM EDT
Moon 11:42 PM EDT (8/26) 12:26 PM EDT (8/26)
Length of Visible Light 13h 36m
Length of Day
12h 48m
Waning Gibbous, 67% of the Moon is Illuminated
Aug 26
Waning Gibbous
Aug 28
Last Quarter
Sep 5
New
Sep 12
First Quarter
Sep 19
Full

Hourly Weather History & Observations

Time (EDT) Temp. Heat Index Dew Point Humidity Pressure Visibility Wind Dir Wind Speed Gust Speed Precip Events Conditions
12:53 AM 77.0 °F - 75.0 °F 94% 30.11 in 10.0 mi ENE 3.5 mph - N/A   Clear
1:53 AM 77.0 °F - 75.0 °F 94% 30.09 in 10.0 mi NNE 5.8 mph - N/A   Clear
2:53 AM 77.0 °F - 75.0 °F 94% 30.08 in 10.0 mi ENE 3.5 mph - N/A   Clear
3:53 AM 75.9 °F - 75.0 °F 97% 30.06 in 10.0 mi NE 6.9 mph - N/A   Partly Cloudy
4:06 AM 75.2 °F - 73.4 °F 94% 30.07 in 10.0 mi NE 8.1 mph - N/A   Mostly Cloudy
4:23 AM 75.2 °F - 73.4 °F 94% 30.07 in 10.0 mi NNE 4.6 mph - N/A   Mostly Cloudy
4:33 AM 75.2 °F - 73.4 °F 94% 30.07 in 10.0 mi NNE 4.6 mph - N/A   Partly Cloudy
4:53 AM 75.9 °F - 73.9 °F 94% 30.07 in 10.0 mi NNE 3.5 mph - N/A   Partly Cloudy
5:53 AM 75.9 °F - 73.9 °F 94% 30.07 in 10.0 mi NNE 5.8 mph - N/A   Clear
6:53 AM 75.9 °F - 73.0 °F 91% 30.08 in 10.0 mi NE 4.6 mph - N/A   Clear
7:53 AM 75.9 °F - 73.9 °F 94% 30.09 in 10.0 mi NE 5.8 mph - N/A   Clear
8:53 AM 77.0 °F - 73.9 °F 90% 30.09 in 10.0 mi NE 8.1 mph - N/A   Clear
9:53 AM 79.0 °F - 75.0 °F 88% 30.10 in 10.0 mi ENE 8.1 mph - N/A   Clear
10:53 AM 82.9 °F 89.4 °F 73.9 °F 74% 30.10 in 10.0 mi ENE 8.1 mph - N/A   Partly Cloudy
11:53 AM 84.9 °F 91.4 °F 73.0 °F 67% 30.10 in 10.0 mi ESE 6.9 mph - N/A   Partly Cloudy
12:53 PM 88.0 °F 93.8 °F 71.1 °F 57% 30.08 in 10.0 mi Calm Calm - N/A   Scattered Clouds
1:53 PM 88.0 °F 92.9 °F 70.0 °F 55% 30.06 in 10.0 mi Calm Calm - N/A   Partly Cloudy
2:53 PM 84.0 °F 91.2 °F 73.9 °F 72% 30.04 in 9.0 mi Variable 4.6 mph - 0.01 in Rain Light Rain
3:53 PM 78.1 °F - 72.0 °F 81% 30.02 in 10.0 mi West 6.9 mph - 0.00 in   Scattered Clouds
4:53 PM 78.1 °F - 72.0 °F 81% 30.02 in 10.0 mi SSW 12.7 mph - N/A   Partly Cloudy
5:53 PM 80.1 °F 83.6 °F 71.1 °F 74% 30.01 in 10.0 mi WSW 3.5 mph - N/A   Scattered Clouds
6:29 PM 75.2 °F - 71.6 °F 89% 30.05 in 1.5 mi SE 19.6 mph 25.3 mph 0.13 in Rain Heavy Rain
6:32 PM 75.2 °F - 71.6 °F 89% 30.05 in 0.8 mi SSE 16.1 mph 25.3 mph 0.19 in Rain Heavy Rain
6:53 PM 73.9 °F - 71.1 °F 91% 30.02 in 3.0 mi SSW 10.4 mph - 0.51 in Rain Light Rain
7:01 PM 73.4 °F - 71.6 °F 94% 30.03 in 10.0 mi SSW 9.2 mph - 0.00 in   Overcast
7:53 PM 73.0 °F - 72.0 °F 96% 30.05 in 10.0 mi SSE 3.5 mph - 0.00 in   Clear
8:53 PM 73.0 °F - 71.1 °F 93% 30.04 in 10.0 mi NNE 5.8 mph - N/A   Clear
9:53 PM 73.9 °F - 71.1 °F 91% 30.04 in 10.0 mi Calm Calm - N/A   Clear
10:53 PM 73.9 °F - 72.0 °F 93% 30.04 in 10.0 mi East 5.8 mph - N/A   Clear
11:53 PM 73.9 °F - 72.0 °F 93% 30.05 in 10.0 mi ESE 3.5 mph - N/A   Clear